Tracking 35280 objects as of 6-Sep-2026
HD Live streaming from Space Station
objects crossing your sky now

CZ-6A DEB

Track CZ-6A DEB now!
10-day predictions


NORAD ID: 58429
Int'l Code: 2022-151AHX
Launch date: November 11, 2022
Source: People's Republic of China (PRC)
Launch site: Taiyaun Space Center, China (TSC)

Note: This is SATELLITE DEBRIS
Your satellite tracking list
Your tracking list is empty




NASA's NSSDC Master Catalog

Two Line Element Set (TLE):
1 58429U 22151AHX 26248.40017208  .00001168  00000-0  67614-3 0  9996
2 58429  98.8819 239.1021 0084028 147.1725 213.4705 14.09077090175596
Source of the keplerian elements: AFSPC